EZY8467 EGKK-LFRB

Flight info

Callsign EZY8467
Flight time 0h 51m
Altitude 27000
Route IMVUR N63 SAM M195 IBNID/N0458F290 M195 MARUK N621 LELNA DCT BADUR/N0445F280 T120 ANLEV
Aircraft A320/M-SDE3FGHIRWY/LB1

Departure

Time 2026-04-26 17:32
Airport London Gatwick Airport (EGKK)

Arrival

Time 2026-04-26 18:23
Airport Brest Bretagne airport (LFRB)
Time Latitude Longitude Altitude Speed Heading
2026-04-26 16:51 51.15447 -0.17609 213 ft 0 kts 167°
2026-04-26 17:19 51.15454 -0.17611 216 ft 4 kts 167°
2026-04-26 17:20 51.15481 -0.17620 216 ft 4 kts 167°
2026-04-26 17:20 51.15493 -0.17625 210 ft 3 kts 168°
2026-04-26 17:20 51.15522 -0.17618 211 ft 4 kts 244°
2026-04-26 17:20 51.15528 -0.17582 211 ft 2 kts 257°
2026-04-26 17:21 51.15529 -0.17578 211 ft 0 kts 257°
2026-04-26 17:23 51.15527 -0.17589 213 ft 5 kts 257°
2026-04-26 17:24 51.15516 -0.17674 214 ft 11 kts 258°
2026-04-26 17:24 51.15494 -0.17832 204 ft 18 kts 257°
2026-04-26 17:24 51.15465 -0.18040 204 ft 17 kts 258°
2026-04-26 17:24 51.15449 -0.18166 212 ft 10 kts 257°
2026-04-26 17:25 51.15429 -0.18260 208 ft 8 kts 232°
2026-04-26 17:25 51.15380 -0.18275 209 ft 9 kts 177°
2026-04-26 17:25 51.15312 -0.18253 207 ft 9 kts 166°
2026-04-26 17:25 51.15255 -0.18230 204 ft 8 kts 166°
2026-04-26 17:26 51.15192 -0.18248 209 ft 9 kts 236°
2026-04-26 17:26 51.15184 -0.18347 212 ft 10 kts 260°
2026-04-26 17:26 51.15162 -0.18498 209 ft 15 kts 258°
2026-04-26 17:26 51.15142 -0.18648 208 ft 13 kts 258°
2026-04-26 17:27 51.15123 -0.18786 207 ft 12 kts 257°
2026-04-26 17:27 51.15105 -0.18909 205 ft 11 kts 257°
2026-04-26 17:27 51.15090 -0.19020 204 ft 10 kts 259°
2026-04-26 17:27 51.15077 -0.19120 204 ft 10 kts 257°
2026-04-26 17:28 51.15057 -0.19241 210 ft 11 kts 241°
2026-04-26 17:28 51.15000 -0.19267 206 ft 7 kts 184°
2026-04-26 17:28 51.14954 -0.19348 212 ft 15 kts 252°
2026-04-26 17:28 51.14933 -0.19503 208 ft 14 kts 257°
2026-04-26 17:29 51.14913 -0.19646 216 ft 12 kts 257°
2026-04-26 17:29 51.14900 -0.19732 211 ft 12 kts 257°
2026-04-26 17:29 51.14867 -0.19971 213 ft 18 kts 258°
2026-04-26 17:29 51.14842 -0.20159 202 ft 17 kts 258°
2026-04-26 17:30 51.14818 -0.20341 205 ft 16 kts 257°
2026-04-26 17:30 51.14795 -0.20501 211 ft 14 kts 257°
2026-04-26 17:30 51.14775 -0.20639 203 ft 12 kts 254°
2026-04-26 17:30 51.14722 -0.20721 204 ft 10 kts 182°
2026-04-26 17:31 51.14665 -0.20703 208 ft 7 kts 166°
2026-04-26 17:31 51.14622 -0.20685 208 ft 6 kts 165°
2026-04-26 17:31 51.14597 -0.20648 211 ft 6 kts 112°
2026-04-26 17:31 51.14610 -0.20513 205 ft 21 kts 76°
2026-04-26 17:32 51.14692 -0.19911 207 ft 90 kts 77°
2026-04-26 17:32 51.14870 -0.18620 203 ft 146 kts 77°
2026-04-26 17:32 51.15116 -0.16925 629 ft 159 kts 77°
2026-04-26 17:32 51.15351 -0.15213 1325 ft 162 kts 80°
2026-04-26 17:33 51.15596 -0.13353 1692 ft 183 kts 79°
2026-04-26 17:33 51.15876 -0.11266 2083 ft 204 kts 78°
2026-04-26 17:33 51.16192 -0.08945 2603 ft 219 kts 78°
2026-04-26 17:34 51.17573 -0.04740 4216 ft 228 kts 27°
2026-04-26 17:34 51.19124 -0.04375 5046 ft 232 kts 348°
2026-04-26 17:34 51.20624 -0.05442 5756 ft 241 kts 330°
2026-04-26 17:34 51.21983 -0.07015 6539 ft 244 kts 311°
2026-04-26 17:35 51.22762 -0.09431 7046 ft 257 kts 278°
2026-04-26 17:35 51.22779 -0.12380 7536 ft 273 kts 262°
2026-04-26 17:35 51.22464 -0.15375 8368 ft 275 kts 257°
2026-04-26 17:35 51.22039 -0.18367 9236 ft 279 kts 256°
2026-04-26 17:36 51.21593 -0.21394 10060 ft 283 kts 257°
2026-04-26 17:36 51.21160 -0.24478 10855 ft 285 kts 258°
2026-04-26 17:36 51.20752 -0.27580 11663 ft 287 kts 258°
2026-04-26 17:36 51.20363 -0.30709 12488 ft 288 kts 259°
2026-04-26 17:37 51.19987 -0.33854 13306 ft 289 kts 259°
2026-04-26 17:37 51.19603 -0.37012 14119 ft 290 kts 258°
2026-04-26 17:37 51.19197 -0.40175 14805 ft 293 kts 258°
2026-04-26 17:38 51.18348 -0.46591 16108 ft 299 kts 258°
2026-04-26 17:38 51.17917 -0.49853 16760 ft 303 kts 258°
2026-04-26 17:38 51.17445 -0.53137 17397 ft 306 kts 253°
2026-04-26 17:38 51.16660 -0.56392 17643 ft 324 kts 248°
2026-04-26 17:39 51.15761 -0.59801 17782 ft 343 kts 248°
2026-04-26 17:39 51.14800 -0.63393 17922 ft 361 kts 248°
2026-04-26 17:39 51.13794 -0.67136 18197 ft 374 kts 248°
2026-04-26 17:39 51.12763 -0.70965 18704 ft 379 kts 248°
2026-04-26 17:40 51.11718 -0.74839 19215 ft 383 kts 248°
2026-04-26 17:40 51.11362 -0.76160 19402 ft 384 kts 248°
2026-04-26 17:40 51.09607 -0.82682 20307 ft 388 kts 248°
2026-04-26 17:40 51.08542 -0.86641 20837 ft 391 kts 248°
2026-04-26 17:41 51.07465 -0.90638 21351 ft 394 kts 248°
2026-04-26 17:41 51.06382 -0.94651 21841 ft 397 kts 248°
2026-04-26 17:41 51.05291 -0.98692 22333 ft 399 kts 247°
2026-04-26 17:41 51.04190 -1.02764 22822 ft 402 kts 247°
2026-04-26 17:42 51.03085 -1.06851 23298 ft 404 kts 247°
2026-04-26 17:42 51.01969 -1.10959 23759 ft 407 kts 247°
2026-04-26 17:42 51.00842 -1.15097 24143 ft 409 kts 247°
2026-04-26 17:42 50.99702 -1.19258 24512 ft 411 kts 247°
2026-04-26 17:43 50.98557 -1.23424 24896 ft 413 kts 247°
2026-04-26 17:43 50.97409 -1.27604 25270 ft 415 kts 246°
2026-04-26 17:43 50.96006 -1.31617 25622 ft 418 kts 237°
2026-04-26 17:43 50.94167 -1.35203 25978 ft 422 kts 227°
2026-04-26 17:44 50.91946 -1.38237 26315 ft 426 kts 217°
2026-04-26 17:44 50.89491 -1.40812 26654 ft 428 kts 216°
2026-04-26 17:44 50.86961 -1.43432 27042 ft 429 kts 216°
2026-04-26 17:44 50.84462 -1.46025 27385 ft 430 kts 216°
2026-04-26 17:45 50.82005 -1.48573 27996 ft 421 kts 216°
2026-04-26 17:45 50.79590 -1.51067 28820 ft 397 kts 216°
2026-04-26 17:45 50.77345 -1.53385 29123 ft 387 kts 216°
2026-04-26 17:45 50.75105 -1.55705 29254 ft 384 kts 216°
2026-04-26 17:46 50.70657 -1.60317 29275 ft 382 kts 216°
2026-04-26 17:46 50.66218 -1.64906 29278 ft 382 kts 216°
2026-04-26 17:47 50.63239 -1.67963 29263 ft 381 kts 216°
2026-04-26 17:47 50.57310 -1.74030 29277 ft 382 kts 216°
2026-04-26 17:48 50.52859 -1.78591 29275 ft 382 kts 216°
2026-04-26 17:48 50.48391 -1.83155 29274 ft 389 kts 216°
2026-04-26 17:49 50.46088 -1.85508 29279 ft 401 kts 215°
2026-04-26 17:49 50.43715 -1.87929 29273 ft 412 kts 215°
2026-04-26 17:49 50.38809 -1.92918 29264 ft 427 kts 214°
2026-04-26 17:50 50.33795 -1.97984 29271 ft 430 kts 214°
2026-04-26 17:50 50.28769 -2.03051 29264 ft 430 kts 214°
2026-04-26 17:51 50.23373 -2.06940 29266 ft 434 kts 197°
2026-04-26 17:51 50.17352 -2.08180 29249 ft 438 kts 187°
2026-04-26 17:52 50.11284 -2.08955 29234 ft 438 kts 187°
2026-04-26 17:52 50.05196 -2.09747 29235 ft 439 kts 187°
2026-04-26 17:53 49.99122 -2.10760 29234 ft 437 kts 194°
2026-04-26 17:54 49.90693 -2.15818 29219 ft 434 kts 206°
2026-04-26 17:54 49.86091 -2.18951 29221 ft 435 kts 205°
2026-04-26 17:55 49.80535 -2.22713 29227 ft 435 kts 205°
2026-04-26 17:55 49.74988 -2.26467 29247 ft 435 kts 205°
2026-04-26 17:56 49.69455 -2.30199 29260 ft 433 kts 205°
2026-04-26 17:57 49.58443 -2.37605 29257 ft 431 kts 205°
2026-04-26 17:57 49.52949 -2.41286 29231 ft 430 kts 205°
2026-04-26 17:58 49.41953 -2.48621 29212 ft 431 kts 205°
2026-04-26 17:59 49.33676 -2.54127 29208 ft 432 kts 205°
2026-04-26 17:59 49.28165 -2.57794 29208 ft 432 kts 205°
2026-04-26 18:00 49.22694 -2.61415 29203 ft 431 kts 205°
2026-04-26 18:00 49.17180 -2.65036 29207 ft 431 kts 205°
2026-04-26 18:01 49.11644 -2.68673 29227 ft 430 kts 205°
2026-04-26 18:01 49.06155 -2.72279 29224 ft 429 kts 205°
2026-04-26 18:02 49.01594 -2.75262 29210 ft 429 kts 205°
2026-04-26 18:02 48.95224 -2.79426 29221 ft 429 kts 205°
2026-04-26 18:03 48.89748 -2.83001 29091 ft 426 kts 205°
2026-04-26 18:03 48.87036 -2.84772 28149 ft 425 kts 205°
2026-04-26 18:03 48.84310 -2.86546 27096 ft 428 kts 205°
2026-04-26 18:04 48.81575 -2.88318 26291 ft 425 kts 205°
2026-04-26 18:04 48.78872 -2.90063 25621 ft 420 kts 205°
2026-04-26 18:04 48.76254 -2.91946 24967 ft 413 kts 212°
2026-04-26 18:05 48.71994 -2.97529 23705 ft 403 kts 232°
2026-04-26 18:05 48.70462 -3.01064 22974 ft 400 kts 242°
2026-04-26 18:05 48.69388 -3.04917 22284 ft 398 kts 251°
2026-04-26 18:05 48.68630 -3.08939 21641 ft 395 kts 253°
2026-04-26 18:06 48.67969 -3.12964 20996 ft 393 kts 255°
2026-04-26 18:06 48.67360 -3.16979 20370 ft 391 kts 256°
2026-04-26 18:06 48.66767 -3.20978 19764 ft 389 kts 256°
2026-04-26 18:06 48.66170 -3.24948 19186 ft 387 kts 256°
2026-04-26 18:07 48.65560 -3.28906 18635 ft 385 kts 256°
2026-04-26 18:07 48.64938 -3.32840 18016 ft 383 kts 255°
2026-04-26 18:07 48.64310 -3.36745 17424 ft 381 kts 255°
2026-04-26 18:07 48.63893 -3.39317 17023 ft 380 kts 255°
2026-04-26 18:08 48.63053 -3.44481 16261 ft 377 kts 255°
2026-04-26 18:08 48.62427 -3.48314 15712 ft 375 kts 255°
2026-04-26 18:08 48.61804 -3.52117 15186 ft 373 kts 255°
2026-04-26 18:08 48.61156 -3.56078 14803 ft 396 kts 255°
2026-04-26 18:09 48.60500 -3.60055 14534 ft 383 kts 255°
2026-04-26 18:09 48.60124 -3.63976 14154 ft 376 kts 268°
2026-04-26 18:09 48.60154 -3.67900 13749 ft 371 kts 270°
2026-04-26 18:09 48.60208 -3.71784 13326 ft 368 kts 270°
2026-04-26 18:10 48.60261 -3.75631 12910 ft 366 kts 270°
2026-04-26 18:10 48.60312 -3.79465 12497 ft 363 kts 270°
2026-04-26 18:10 48.60360 -3.83265 12083 ft 361 kts 270°
2026-04-26 18:10 48.60406 -3.87036 11688 ft 359 kts 270°
2026-04-26 18:11 48.60451 -3.90804 11293 ft 357 kts 270°
2026-04-26 18:11 48.60505 -3.94534 10857 ft 354 kts 270°
2026-04-26 18:11 48.60564 -3.98244 10420 ft 349 kts 270°
2026-04-26 18:11 48.60621 -4.01826 9985 ft 343 kts 270°
2026-04-26 18:12 48.60677 -4.05393 9510 ft 337 kts 270°
2026-04-26 18:12 48.60732 -4.08909 9042 ft 332 kts 270°
2026-04-26 18:12 48.60785 -4.12365 8576 ft 327 kts 270°
2026-04-26 18:12 48.60838 -4.15774 8124 ft 322 kts 270°
2026-04-26 18:13 48.60890 -4.19132 7675 ft 318 kts 270°
2026-04-26 18:13 48.60943 -4.22462 7229 ft 314 kts 270°
2026-04-26 18:13 48.60993 -4.25746 6782 ft 311 kts 270°
2026-04-26 18:13 48.61009 -4.27900 6496 ft 308 kts 266°
2026-04-26 18:14 48.60385 -4.32055 5887 ft 302 kts 252°
2026-04-26 18:14 48.59778 -4.35077 5438 ft 298 kts 252°
2026-04-26 18:14 48.59180 -4.38059 4985 ft 295 kts 252°
2026-04-26 18:14 48.58588 -4.41017 4533 ft 293 kts 252°
2026-04-26 18:15 48.57999 -4.43949 4084 ft 290 kts 252°
2026-04-26 18:15 48.57414 -4.46826 3809 ft 282 kts 252°
2026-04-26 18:15 48.56846 -4.49612 3570 ft 273 kts 252°
2026-04-26 18:15 48.56298 -4.52297 3338 ft 263 kts 252°
2026-04-26 18:16 48.55771 -4.54897 3114 ft 254 kts 252°
2026-04-26 18:16 48.54174 -4.59339 2657 ft 236 kts 226°
2026-04-26 18:16 48.53078 -4.61070 2528 ft 225 kts 225°
2026-04-26 18:17 48.51990 -4.62742 2510 ft 219 kts 225°
2026-04-26 18:17 48.50925 -4.64378 2509 ft 218 kts 225°
2026-04-26 18:17 48.49861 -4.66010 2511 ft 219 kts 225°
2026-04-26 18:17 48.48796 -4.67644 2509 ft 218 kts 225°
2026-04-26 18:18 48.47716 -4.69233 2509 ft 218 kts 216°
2026-04-26 18:18 48.46340 -4.70021 2511 ft 208 kts 180°
2026-04-26 18:18 48.44994 -4.69601 2476 ft 196 kts 159°
2026-04-26 18:18 48.43748 -4.68805 2264 ft 194 kts 155°
2026-04-26 18:19 48.42525 -4.67904 2064 ft 192 kts 143°
2026-04-26 18:19 48.41677 -4.66378 2008 ft 192 kts 119°
2026-04-26 18:19 48.41056 -4.64587 2011 ft 193 kts 116°
2026-04-26 18:19 48.40484 -4.62798 2034 ft 181 kts 114°
2026-04-26 18:20 48.40344 -4.61050 2009 ft 163 kts 73°
2026-04-26 18:20 48.40726 -4.59504 1995 ft 154 kts 70°
2026-04-26 18:20 48.41084 -4.58006 2000 ft 151 kts 70°
2026-04-26 18:20 48.41312 -4.57028 2004 ft 150 kts 70°
2026-04-26 18:21 48.41772 -4.55044 1883 ft 151 kts 70°
2026-04-26 18:21 48.42112 -4.53569 1662 ft 148 kts 69°
2026-04-26 18:21 48.42446 -4.52112 1457 ft 147 kts 69°
2026-04-26 18:21 48.42775 -4.50666 1271 ft 145 kts 69°
2026-04-26 18:22 48.43097 -4.49227 1103 ft 145 kts 68°
2026-04-26 18:22 48.43424 -4.47795 928 ft 145 kts 68°
2026-04-26 18:22 48.43760 -4.46356 742 ft 146 kts 69°
2026-04-26 18:22 48.44091 -4.44923 502 ft 145 kts 70°
2026-04-26 18:23 48.44411 -4.43503 312 ft 141 kts 69°
2026-04-26 18:23 48.44694 -4.42265 324 ft 104 kts 72°
2026-04-26 18:23 48.44871 -4.41475 332 ft 55 kts 71°
2026-04-26 18:23 48.44965 -4.41060 322 ft 38 kts 72°
2026-04-26 18:24 48.45037 -4.40746 322 ft 11 kts 63°
2026-04-26 18:24 48.45062 -4.40682 324 ft 5 kts 102°
2026-04-26 18:24 48.45040 -4.40678 324 ft 3 kts 212°
2026-04-26 18:24 48.45026 -4.40749 323 ft 14 kts 257°
2026-04-26 18:25 48.44994 -4.40939 319 ft 20 kts 251°
2026-04-26 18:25 48.44946 -4.41141 321 ft 21 kts 250°
2026-04-26 18:25 48.44899 -4.41350 327 ft 20 kts 252°
2026-04-26 18:25 48.44855 -4.41551 330 ft 24 kts 251°
2026-04-26 18:26 48.44787 -4.41853 335 ft 35 kts 251°
2026-04-26 18:26 48.44722 -4.42131 329 ft 18 kts 240°
2026-04-26 18:26 48.44638 -4.42139 332 ft 11 kts 160°
2026-04-26 18:26 48.44570 -4.42103 328 ft 10 kts 161°
2026-04-26 18:27 48.44507 -4.42078 332 ft 9 kts 162°
2026-04-26 18:27 48.44458 -4.42053 332 ft 5 kts 161°
2026-04-26 18:27 48.44442 -4.42044 329 ft 1 kts 161°
2026-04-26 18:27 48.44435 -4.42041 330 ft 1 kts 161°
2026-04-26 18:28 48.44428 -4.42037 330 ft 2 kts 161°
2026-04-26 18:28 48.44422 -4.42034 331 ft 0 kts 161°